Location: La Pichardière
(47.1000°N, 0.3500°E)
Time: 02:08:17
(UTC+00:00)

Daily predictions for brighter satellites

Satellite Brightness Start Highest point End
(mag) Time Altitude Azimuth Time Altitude Azimuth Time Altitude Azimuth
Cosmos 2297 Rocket 3.7 00:04:18 10° NNW 00:09:23 33° NE 00:14:27 10° ESE
Cosmos 1782 3.5 00:07:42 10° N 00:11:12 40° ENE 00:11:51 36° ESE
NOSS 3-4 (A) 4.3 00:05:55 10° NW 00:12:31 46° WSW 00:15:34 32° SSW
NOSS 3-4 (C) 4.3 00:06:00 10° NW 00:12:36 47° WSW 00:15:40 32° S
SL-08 ROCKET BODY 4.3 00:11:57 38° S 00:14:27 87° E 00:20:27 10° N
BREEZE-M DEB (TANK) 3.8 00:11:38 10° W 00:15:35 79° N 00:30:41 10° E
Cosmos 1975 Rocket 4.3 00:14:30 26° WSW 00:16:00 33° WNW 00:19:58 10° N
Cosmos 1818 3.8 00:12:36 10° NW 00:17:51 50° WSW 00:19:10 41° SSW
Cosmos 2058 3.1 00:18:00 49° SE 00:18:33 54° E 00:22:25 10° NNE
Cosmos 44 2.9 00:19:22 54° SSW 00:20:20 86° SE 00:24:46 10° NE
Cosmos 2228 3.9 00:21:27 10° NNW 00:25:15 34° W 00:25:54 32° WSW
Cosmos 1680 Rocket 3.6 00:25:25 10° NNW 00:30:41 72° ENE 00:33:13 31° SE
RESURS DK-1 3.8 00:28:38 10° NNW 00:32:17 33° NE 00:34:57 16° ESE
Cosmos 1697 Rocket 4.4 00:32:50 16° SE 00:35:01 20° E 00:39:00 10° NE
H-2A R/B 3.2 00:34:14 30° ESE 00:35:27 41° ENE 00:39:02 10° N
Cosmos 1656 4.0 00:33:45 36° SSE 00:35:40 53° ESE 00:41:05 10° NE
SeaSat 1 4.1 00:33:35 10° ESE 00:37:50 30° NE 00:42:05 10° N
Cosmos 923 Rocket 3.9 00:32:55 10° NNW 00:38:07 76° WSW 00:39:56 41° S
Cosmos 2227 Rocket 4.0 00:35:55 10° N 00:40:48 28° NE 00:45:38 10° ESE
Cosmos 1400 Rocket 3.0 00:39:27 10° NNW 00:43:10 48° W 00:43:29 46° WSW
BlueWalker 3 3.8 00:41:41 10° WNW 00:45:00 30° N 00:48:17 10° ENE
Cosmos 1602 3.9 00:46:12 43° E 00:46:18 44° E 00:49:25 10° NNE
EO 1 Delta rocket 4.3 00:46:45 37° SW 00:47:58 45° W 00:52:25 10° NNW
Cosmos 1937 Rocket 3.6 00:47:15 36° SW 00:49:18 68° WNW 00:54:26 10° NNE
ISS -2.2 00:49:53 10° WNW 00:53:02 37° N 00:56:12 10° ENE
H-2A R/B 4.5 00:54:04 10° ENE 00:55:54 13° E 00:57:45 10° ESE
Cosmos 858 Rocket 4.5 00:54:37 38° SSW 00:56:38 79° WNW 01:01:50 10° NNE
Cosmos 2315 Rocket 4.0 00:51:34 10° N 00:57:58 82° W 01:01:14 31° S
Cosmos 1441 Rocket 4.2 00:58:03 29° ESE 00:58:44 32° E 01:01:53 10° NNE
Landsat 4 3.3 01:03:33 58° E 01:03:37 58° ENE 01:06:24 10° N
Cosmos 1933 3.2 01:02:05 10° N 01:05:59 79° E 01:07:02 46° SSE
DELTA 2 R/B (1) 4.5 01:07:24 29° SSE 01:07:24 29° SSE 01:12:00 10° ESE
DNEPR-1 R/B 3.8 01:07:37 10° NW 01:11:40 45° WSW 01:12:14 42° SW
Meteor 2-3 Rocket 4.0 01:10:11 30° S 01:13:08 67° E 01:18:54 10° NNE
CZ-2C R/B 2.7 01:11:03 33° S 01:13:28 67° WSW 01:19:01 10° NNW
Cosmos 1606 Rocket 4.2 01:18:07 10° NNW 01:22:10 39° W 01:23:12 34° SW
Cosmos 1048 Rocket 4.3 01:17:08 10° NNW 01:22:30 69° ENE 01:26:52 16° SSE
Cosmos 2058 Rocket 3.1 01:18:56 10° N 01:23:23 79° E 01:25:27 31° SSE
Cosmos 1315 Rocket 2.8 01:19:47 10° N 01:23:35 68° ENE 01:25:07 34° SSE
Cosmos 1655 Rocket 4.1 01:20:19 30° SSW 01:23:41 69° W 01:30:06 10° N
IDEFIX/ARIANE 42P 3.0 01:24:18 10° NNE 01:29:24 56° E 01:32:15 25° S
Lacrosse 5 rocket 4.0 01:31:19 10° NW 01:34:20 20° N 01:37:20 10° ENE
CZ-2C R/B 3.4 01:32:13 10° N 01:36:55 48° WNW 01:39:09 27° SW
Cosmos 2360 4.3 01:36:32 28° SW 01:39:39 76° WNW 01:45:23 10° NNE
Meteor 1-26 Rocket 4.2 01:35:12 10° N 01:40:38 78° ENE 01:44:35 19° SSE
CZ-4C R/B 3.6 01:37:10 10° W 01:41:20 30° NNW 01:46:30 10° NNE
Cosmos 1862 4.3 01:42:22 25° WSW 01:43:22 29° WNW 01:46:38 10° NNW
Cosmos 1867 4.3 01:40:43 18° WSW 01:44:30 48° NW 01:49:48 10° NNE
ADEOS II 3.9 01:41:15 10° NE 01:45:22 23° E 01:49:28 10° SE
Cosmos 2263 Rocket 3.4 01:41:25 10° NNW 01:46:49 43° NE 01:52:08 10° SE
Cosmos 494 Rocket 4.4 01:41:55 10° NNW 01:46:54 45° WSW 01:49:10 28° SSW
Gbstr 26 Del rocket 4.2 01:44:35 10° WNW 01:50:50 79° NNE 01:58:18 10° ESE
Cosmos 2297 Rocket 2.5 01:48:12 10° NW 01:53:36 47° WSW 01:56:44 24° S
CZ-2D R/B 3.1 01:52:00 10° NNE 01:56:55 39° E 02:01:07 13° SSE
SL-19 R/B 4.5 01:51:11 10° NNE 01:56:58 75° WNW 02:00:57 23° SSW
MOZ.5/SAFIR/RUBIN 5/SL-8 3.7 01:56:35 20° SSE 01:59:48 84° WSW 02:04:29 10° NNW
BREEZE-M DEB (TANK) 1.3 01:59:23 10° WNW 02:02:02 82° SSW 02:04:15 10° ESE
Cosmos 1758 Rocket 3.5 02:05:25 24° S 02:08:00 85° E 02:12:26 10° N
Cosmos 1602 Rocket 3.9 02:05:12 19° S 02:08:06 58° E 02:12:22 10° NNE
Cosmos 1980 Rocket 2.8 02:05:14 18° S 02:09:10 50° ESE 02:14:33 10° NE
RESURS DK-1 3.4 02:06:19 10° NW 02:09:38 26° WSW 02:10:15 24° WSW
H-2A R/B 4.0 02:09:35 16° W 02:10:00 16° W 02:12:26 10° NW
Tiangong -0.4 02:10:34 20° SSE 02:10:34 20° SSE 02:12:55 10° ESE
Resurs 1-4 Rocket 2.6 02:06:02 10° NNE 02:11:16 56° ESE 02:15:34 15° S
Nadezhda 1 Rocket 4.0 02:06:57 10° N 02:13:16 88° W 02:19:10 11° S
Meteor 2-2 Rocket 4.5 02:08:06 10° NNW 02:13:32 51° W 02:17:16 20° SSW
Cosmos 1626 Rocket 3.6 02:12:06 25° SSW 02:14:31 65° W 02:18:53 10° N
Cosmos 468 4.5 02:09:19 10° NNW 02:14:38 71° WSW 02:19:49 10° SSE
SeaSat 1 2.7 02:11:34 18° S 02:15:02 48° WSW 02:19:47 10° NW
Cosmos 1745 Rocket 4.1 02:12:25 16° S 02:17:34 83° E 02:23:58 10° N
Cosmos 1697 Rocket 2.8 02:14:32 21° SW 02:18:22 70° WNW 02:24:03 10° NNE
NOSS 7 (A) 4.4 02:15:37 10° NW 02:18:31 77° SW 02:21:46 10° SE
H-2A R/B 4.4 02:17:07 10° NE 02:20:08 16° E 02:23:05 10° SE
Cosmos 614 Rocket 3.9 02:18:02 10° NNW 02:23:07 84° ENE 02:28:11 10° SSE
BlueWalker 3 2.4 02:19:33 10° WNW 02:23:10 59° NNE 02:26:46 10° ESE
FENGYUN 3A 3.6 02:18:26 10° NNE 02:23:51 84° WNW 02:27:59 18° SSW
Cosmos 2227 Rocket 2.3 02:19:37 10° NW 02:25:11 58° WSW 02:30:43 10° S
MSX 4.1 02:21:34 10° N 02:27:10 57° WNW 02:31:23 18° SW
Cosmos-2242 4.0 02:23:49 10° NNW 02:27:28 30° W 02:29:26 20° SW
ISS -3.7 02:26:40 10° WNW 02:30:03 84° NNE 02:33:24 10° ESE
Okean 1 3.1 02:27:51 10° NNW 02:31:34 69° W 02:34:28 16° S
H-2A R/B 2.0 02:27:36 10° N 02:31:45 69° WNW 02:34:41 19° SSW
Cosmos 1709 Rocket 4.2 02:25:56 12° S 02:31:53 79° E 02:38:15 10° N
Cosmos 1932 4.5 02:31:45 17° SSW 02:36:38 86° SE 02:43:02 10° NE
ATLAS 2AS CENTAUR R/B 3.0 02:30:52 10° NW 02:37:40 70° NE 02:44:21 10° SE
Okean 1-7 Rocket 3.6 02:35:08 16° S 02:38:41 86° W 02:43:12 10° N
USA 290 3.0 02:35:28 10° NNW 02:38:44 55° ENE 02:41:57 10° SE
NPP 4.3 02:38:21 10° N 02:43:27 44° WNW 02:47:39 15° SW
ALOS 2.4 02:40:02 10° NNE 02:44:37 70° ESE 02:49:03 11° S
Cosmos 2221 2.5 02:44:03 10° NNW 02:48:17 62° W 02:52:28 10° S
Cosmos 1743 3.5 02:45:58 10° SSE 02:49:08 40° E 02:52:19 10° NNE
Cosmos 1125 Rocket 4.0 02:46:24 15° SW 02:50:35 50° WNW 02:55:43 10° NNE
Cosmos 192 4.3 02:46:47 15° SSW 02:50:55 83° WNW 02:55:52 10° NNE
DELTA 2 R/B (1) 4.1 02:48:05 11° WSW 02:52:57 39° S 02:58:06 10° ESE
Cosmos 2298 Rocket 4.2 02:48:25 12° SSW 02:53:20 76° ESE 02:58:39 10° NNE
Cosmos 2151 3.0 02:51:45 14° SSW 02:55:19 66° WNW 02:59:28 10° N
Cosmos 1953 Rocket 4.0 02:57:45 10° S 03:02:04 63° E 03:06:23 10° NNE
Cosmos 2322 Rocket 4.5 02:59:48 10° SE 03:03:37 19° E 03:07:26 10° ENE
Cosmos 2369 3.8 03:01:07 11° SSW 03:06:38 85° ESE 03:12:19 10° NNE
Meteor 1-19 Rocket 4.1 03:01:36 10° NNW 03:07:02 78° W 03:12:35 10° S
IDEFIX/ARIANE 42P 4.1 03:04:28 10° N 03:08:30 23° WNW 03:12:32 10° WSW
Cosmos 2333 Rocket 4.3 03:04:24 10° SSE 03:08:39 22° E 03:12:53 10° NE
Cosmos 1812 Rocket 4.5 03:05:13 10° NNW 03:09:05 31° W 03:12:55 10° SSW
Lacrosse 5 rocket 2.5 03:08:41 10° NW 03:12:30 45° NNE 03:16:15 10° ESE
Meteor 1-20 Rocket 4.3 03:09:00 10° SSW 03:14:51 81° W 03:20:41 10° N
Cosmos 2082 3.7 03:09:32 10° NNW 03:15:12 70° WSW 03:20:48 10° SSE
Meteor 1-28 Rocket 3.5 03:11:59 10° SSE 03:15:18 59° ENE 03:18:38 10° N
USA 234 3.9 03:10:57 10° ENE 03:17:12 47° SE 03:23:26 10° SSW
Cosmos 1707 3.6 03:17:23 10° N 03:20:33 43° ENE 03:23:41 10° SSE
Cosmos 921 Rocket 3.3 03:19:19 10° NNW 03:23:37 50° WSW 03:27:51 10° S
Cosmos 2219 3.5 03:18:16 10° NW 03:23:41 46° WSW 03:29:03 10° S
CZ-3 R/B 4.3 02:50:50 10° WSW 03:24:29 40° SSW 03:34:52 10° SE
ADEOS II 2.4 03:20:09 10° N 03:25:14 53° WNW 03:30:19 10° SW
Cosmos 1733 3.0 03:23:44 10° S 03:26:42 62° E 03:29:41 10° NNE
Cosmos 1825 Rocket 4.1 03:22:58 10° SSW 03:27:04 42° WNW 03:31:13 10° N
Envisat 3.2 03:22:21 10° N 03:27:21 60° WNW 03:32:19 10° SSW
SL-16 R/B 3.1 03:22:39 10° S 03:28:03 48° ESE 03:33:29 10° NE
Cosmos 1238 Rocket 4.3 03:23:45 10° NNW 03:28:30 35° W 03:33:08 10° SSW
SL-16 R/B 2.6 03:23:42 10° S 03:29:56 74° WSW 03:36:14 10° NNW
Cosmos 2263 Rocket 2.8 03:25:34 10° NW 03:30:36 34° WSW 03:35:35 10° SSW
Helios 1A Rocket 4.5 03:27:29 10° SE 03:30:44 34° ENE 03:33:58 10° N
METEOR-M 4.2 03:30:06 10° NNE 03:35:29 84° WNW 03:40:49 10° SSW
CZ-2D R/B 3.1 03:32:10 10° N 03:36:48 32° WNW 03:41:22 10° SW
